Voltar ao catálogo

ATLAS 5 CENTAUR R/B

AtivoHEO
NORAD 40375·ROCKET BODY·🇺🇸 United States

Lançado Jan 21, 2015 de Cape Canaveral Space Force Station

Loading…

Próximas Passagens (próximas 24 horas)

TLE

AtualizadoSource: Space-Track

Época: Sep 14, 2026, 10:45 UTC

1 40375U 15002B   26257.44846208 -.00000063  00000-0  00000-0 0  9995
2 40375  18.7774 275.3421 6085286 153.9162 257.0705  2.08934098 88927

Acompanhe ATLAS 5 CENTAUR R/B em tempo real com AllMySat

Download on the App Store